Avalon School, Santa Catalina Island Weather observations

Data are for 10 minute period ending at time listed.
 Day   Time   Solar   Ave.   Ave.  Ave.  Vector    Max.   Stn.    Total
  of    of     Rad.   Air    Rel.  Wind   Wind     Wind   Baro.  Precip.
Year   Day            Temp.  Hum.  Speed  Dir.     Gust   Pres.         
2014   (PST)   W/m2    F      %     mph   deg.      mph    mb.     in.  
------------------------------------------------------------------------
 109   21:00    0.0    60   83.6     3    272.3     4.8    999.0   0.00  
 109   21:10    0.0    59   83.5     2    267.3     4.2    999.0   0.00  
 109   21:20    0.0    58   83.7     2    232.1     4.2    999.0   0.00  
 109   21:30    0.0    60   83.1     4    193.2    10.2    999.0   0.00  
 109   21:40    0.0    60   86.6     5    221.8    10.2    999.0   0.00  
 109   21:50    0.0    60   87.7     4    198.6    10.8    999.0   0.00  
 109   22:00    0.0    60   88.3     4    178.5     9.6    999.0   0.00  
 109   22:10    0.0    60   88.7     3    192.2     7.2    999.0   0.00  
 109   22:20    0.0    60   88.9     4    204.9     9.0    999.0   0.00  
 109   22:30    0.0    60   88.1     4    176.8    10.8    999.0   0.00  
 109   22:40    0.0    60   87.0     3    238.9     8.4    999.0   0.00  
 109   22:50    0.0    60   86.7     3    209.0     6.6    999.0   0.00  
 109   23:00    0.0    59   86.4     2    245.8     6.6    999.0   0.00  
 109   23:10    0.0    59   85.9     2    252.7     3.6    999.0   0.00  
 109   23:20    0.0    57   84.2     2    268.4     4.2    999.0   0.00  
 109   23:30    0.0    57   85.1     1    269.5     3.6    999.0   0.00  
 109   23:40    0.0    56   85.2     1    265.4     3.6    999.0   0.00  
 109   23:50    0.0    56   84.9     1    280.4     4.2    999.0   0.00  
 110    0:00    0.0    56   84.9     1    254.4     2.4    999.0   0.00  
 110    0:10    0.0    56   84.8     0    201.5     1.8    999.0   0.00  
 110    0:20    0.0    56   85.4     1    268.3     3.6    999.0   0.00  
 110    0:30    0.0    56   85.6     1    275.8     2.4    999.0   0.00  
 110    0:40    0.0    56   85.9     2    284.0     3.6    999.0   0.00  
 110    0:50    0.0    56   85.9     0    274.3     1.2    999.0   0.00  
 110    1:00    0.0    56   86.4     0    260.5     1.8    999.0   0.00  
 110    1:10    0.0    55   87.1     1    277.7     3.6    999.0   0.00  
 110    1:20    0.0    56   87.3     2    270.4     3.6    999.0   0.00  
 110    1:30    0.0    56   86.9     0      0.0     0.0    999.0   0.00  
 110    1:40    0.0    55   87.6     1    263.7     1.8    999.0   0.00  
 110    1:50    0.0    56   88.3     1    260.7     2.4    999.0   0.00  
 110    2:00    0.0    55   88.3     0    271.8     2.4    999.0   0.00  
 110    2:10    0.0    55   88.8     0    258.8     1.8    999.0   0.00  
 110    2:20    0.0    55   89.6     1    270.8     3.0    999.0   0.00  
 110    2:30    0.0    56   89.3     1    282.4     3.0    999.0   0.00  
 110    2:40    0.0    55   89.2     0      0.0     0.0    999.0   0.00  
 110    2:50    0.0    54   89.6     0      0.0     0.0    999.0   0.00  
 110    3:00    0.0    55   90.4     0      0.0     0.0    999.0   0.00  
 110    3:10    0.0    54   90.5     0      0.0     0.0    999.0   0.00  
 110    3:20    0.0    54   91.2     0      0.0     0.0    999.0   0.00  
 110    3:30    0.0    54   91.6     0    269.4     3.0    999.0   0.00  
 110    3:40    0.0    55   92.2     1    284.7     3.6    999.0   0.00  
 110    3:50    0.0    55   92.0     0    268.6     2.4    999.0   0.00  
 110    4:00    0.0    54   92.4     1    258.1     3.0    999.0   0.00  
 110    4:10    0.0    54   92.5     0      0.0     0.0    999.0   0.00  
 110    4:20    0.0    54   92.6     0    277.1     1.8    999.0   0.00  
 110    4:30    0.0    54   92.7     0    137.1     1.8    999.0   0.00  
 110    4:40    0.0    54   92.9     2    272.2     3.0    999.0   0.00  
 110    4:50    0.0    54   93.0     1    280.0     2.4    999.0   0.00  
 110    5:00    0.0    54   93.0     0    280.6     1.2    999.0   0.00  
 110    5:10    0.0    54   93.1     2    273.4     3.0    999.0   0.00  
 110    5:20    2.0    54   93.0     1    289.4     3.0    999.0   0.00  
 110    5:30    5.0    54   92.9     2    267.7     3.6    999.0   0.00  
 110    5:40   12.0    54   93.1     1    259.7     3.0    999.0   0.00  
 110    5:50   18.0    54   92.8     0      0.0     0.0    999.0   0.00  
 110    6:00   25.0    54   93.0     0    251.2     1.2    999.0   0.00  
 110    6:10   33.0    55   93.1     0      0.0     0.0    999.0   0.00  
 110    6:20   48.0    55   93.2     0    110.5     1.8    999.0   0.00  
 110    6:30  117.0    56   92.7     0    109.8     1.2    999.0   0.00  
 110    6:40  165.0    58   91.9     0      0.0     0.0    999.0   0.00  
 110    6:50  188.0    60   88.9     0      0.0     0.0    999.0   0.00  
 110    7:00  213.0    62   85.3     0      0.0     0.0    999.0   0.00  
 110    7:10  240.0    64   81.7     0     85.6     2.4    999.0   0.00  
 110    7:20  270.0    64   79.8     2    101.7     4.2    999.0   0.00  
 110    7:30  300.0    64   80.6     2    104.4     4.2    999.0   0.00  
 110    7:40  331.0    65   79.0     3     85.5     4.8    999.0   0.00  
 110    7:50  360.0    65   79.0     3     83.7     6.0    999.0   0.00  
 110    8:00  389.0    66   78.4     3     92.0     6.0    999.0   0.00  
 110    8:10  415.0    67   75.9     2    122.1     4.8    999.0   0.00  
 110    8:20  443.0    66   76.5     2     81.2     4.8    999.0   0.00  
 110    8:30  469.0    68   74.8     3     99.1     5.4    999.0   0.00  
 110    8:40  495.0    67   75.9     4    100.1     7.2    999.0   0.00  
 110    8:50  520.0    67   75.2     4    107.5     9.0    999.0   0.00  
 110    9:00  544.0    67   75.4     3     80.3     6.6    999.0   0.00  
 110    9:10  566.0    68   74.5     3    322.8     6.0    999.0   0.00  
 110    9:20  588.0    67   75.6     4     49.2     8.4    999.0   0.00  
 110    9:30  610.0    68   75.2     4     59.9     8.4    999.0   0.00  
 110    9:40  630.0    68   74.7     4     99.0     7.8    999.0   0.00  
 110    9:50  650.0    68   74.6     3     68.7     6.6    999.0   0.00  
 110   10:00  668.0    68   74.6     3     91.9     8.4    999.0   0.00  
 110   10:10  685.0    67   76.5     4     93.8     9.0    999.0   0.00  
 110   10:20  701.0    67   75.6     4     76.7     6.6    999.0   0.00  
 110   10:30  716.0    68   75.2     4     89.2     9.0    999.0   0.00  
 110   10:40  731.0    68   74.1     4     96.9     7.8    999.0   0.00  
 110   10:50  743.0    68   74.3     5     85.7     9.0    999.0   0.00  
 110   11:00  754.0    67   75.4     5     92.9     9.0    999.0   0.00  
 110   11:10  763.0    68   75.2     4     66.7     9.0    999.0   0.00  
 110   11:20  769.0    69   72.2     3    350.1     5.4    999.0   0.00  
 110   11:30  774.0    69   72.6     4     72.9     8.4    999.0   0.00  
 110   11:40  779.0    68   74.2     4     63.0     9.6    999.0   0.00  
 110   11:50  782.0    68   74.4     4     96.1     8.4    999.0   0.00  
 110   12:00  785.0    67   75.3     4     91.0     9.6    999.0   0.00  
 110   12:10  785.0    68   74.6     4     76.6     9.6    999.0   0.00  
 110   12:20  783.0    68   74.0     3     85.4     7.8    999.0   0.00  
 110   12:30  781.0    68   73.3     5     94.6     9.6    999.0   0.00  
 110   12:40  777.0    68   74.8     4     92.1     9.0    999.0   0.00  
 110   12:50  771.0    68   74.2     5     98.3     9.6    999.0   0.00  
 110   13:00  764.0    67   76.2     5     93.7    10.8    999.0   0.00  
 110   13:10  754.0    68   75.2     5    101.3     7.8    999.0   0.00  
 110   13:20  743.0    68   75.3     5    101.9     9.0    999.0   0.00  
 110   13:30  731.0    68   74.0     6    101.5     9.6    999.0   0.00  
 110   13:40  717.0    68   73.7     5    100.6    10.2    999.0   0.00  
 110   13:50  701.0    69   72.7     5    102.5     9.6    999.0   0.00  
 110   14:00  683.0    68   73.4     5     94.7     7.8    999.0   0.00  
 110   14:10  665.0    68   74.3     5    103.4     8.4    999.0   0.00  
 110   14:20  647.0    68   74.3     6    104.8     9.0    999.0   0.00  
 110   14:30  627.0    67   76.0     5    100.2     9.6    999.0   0.00  
 110   14:40  606.0    68   75.9     6    102.6     9.0    999.0   0.00  
 110   14:50  583.0    67   77.8     6    121.7    10.8    999.0   0.00  
 110   15:00  561.0    66   80.2     7    121.7    11.3    999.0   0.00  
 110   15:10  536.0    67   80.3     5    122.6    10.2    999.0   0.00  
 110   15:20  511.0    66   81.1     5    126.3     9.6    999.0   0.00  
 110   15:30  484.0    66   82.0     6    120.0    10.8    999.0   0.00  
 110   15:40  456.0    66   82.9     7    129.9    12.5    999.0   0.00  
 110   15:50  428.0    66   83.2     6    119.7    10.8    999.0   0.00  
 110   16:00  399.0    67   82.3     4    106.0     8.4    999.0   0.00  
 110   16:10  369.0    67   81.8     5    120.2    10.2    999.0   0.00  
 110   16:20  340.0    66   84.0     6    129.0     9.6    999.0   0.00  
 110   16:30  310.0    66   83.9     5    123.2     9.0    999.0   0.00  
 110   16:40  281.0    67   83.0     2     70.5     4.8    999.0   0.00  
 110   16:50  250.0    67   82.0     3     98.8     5.4    999.0   0.00  
 110   17:00  219.0    67   81.9     3     79.3     5.4    999.0   0.00  
 110   17:10  183.0    66   82.9     3     90.0     6.0    999.0   0.00  
 110   17:20   77.0    66   84.5     3     86.8     6.6    999.0   0.00  
 110   17:30   42.0    65   86.0     3     88.4     4.8    999.0   0.00  
 110   17:40   36.0    65   86.4     3    101.6     4.8    999.0   0.00  
 110   17:50   30.0    64   86.8     2    115.5     3.6    999.0   0.00  
 110   18:00   25.0    64   86.9     0    209.6     1.2    999.0   0.00  
 110   18:10   19.0    64   87.1     0    207.5     1.2    999.0   0.00  
 110   18:20   13.0    63   87.6     0    263.8     1.8    999.0   0.00  
 110   18:30    8.0    62   87.9     0    261.4     1.2    999.0   0.00  
 110   18:40    3.0    62   88.7     0    283.2     1.8    999.0   0.00  
 110   18:50    1.0    62   89.4     1    263.0     1.8    999.0   0.00  
 110   19:00    0.0    61   89.9     1    268.5     2.4    999.0   0.00  
 110   19:10    0.0    61   90.3     0    272.2     1.2    999.0   0.00  
 110   19:20    0.0    60   90.8     1    267.6     2.4    999.0   0.00  
 110   19:30    0.0    60   91.1     0    269.5     1.8    999.0   0.00  
 110   19:40    0.0    60   91.4     0    263.6     1.8    999.0   0.00  
 110   19:50    0.0    60   91.7     0    262.0     1.8    999.0   0.00  
 110   20:00    0.0    59   91.9     0      0.0     0.0    999.0   0.00  
 110   20:10    0.0    59   92.2     0    233.0     1.2    999.0   0.00  
 110   20:20    0.0    59   92.5     0    226.4     1.2    999.0   0.00  
 110   20:30    0.0    59   92.7     0      0.0     0.0    999.0   0.00  
 110   20:40    0.0    59   92.9     0    286.4     1.2    999.0   0.00  
 110   20:50    0.0    58   93.2     0    271.6     1.2    999.0   0.00  

Return to Avalon School graphs page.


Western Regional Climate Center,wrcc@dri.edu